Date,TemperatureHighF,TemperatureAvgF,TemperatureLowF,DewpointHighF,DewpointAvgF,DewpointLowF,HumidityHigh,HumidityAvg,HumidityLow,PressureMaxIn,PressureMinIn,WindSpeedMaxMPH,WindSpeedAvgMPH,GustSpeedMaxMPH,PrecipitationSumIn
2013-3-1,81,65,46,32,29,26,54,29,13,30.38,30.23,16,5,23,0.00
2013-3-2,83,65,49,43,33,26,65,35,13,30.30,30.15,9,3,15,0.00
2013-3-3,71,60,50,49,38,33,94,48,25,30.18,30.03,12,5,18,0.00
2013-3-4,69,55,49,52,49,48,97,82,48,30.16,30.07,7,2,13,0.00
2013-3-5,65,53,47,53,49,46,98,88,62,30.15,30.06,12,5,21,0.00
2013-3-6,63,53,47,48,46,44,97,79,53,30.18,30.06,8,4,16,0.00
2013-3-7,54,50,47,52,48,45,98,92,79,30.06,29.91,9,2,19,0.12
2013-3-8,47,46,45,46,43,43,95,90,86,30.08,29.91,10,7,17,0.02
2013-3-9,57,49,46,47,45,44,98,87,67,30.25,30.07,8,2,14,0.00
2013-3-10,72,62,53,48,43,33,77,53,24,30.25,30.19,7,3,12,0.00
2013-3-11,75,61,47,47,43,38,82,54,29,30.25,30.11,9,3,15,0.00
2013-3-12,82,70,51,51,43,35,76,42,19,30.17,30.07,7,2,14,0.00
2013-3-13,88,68,52,50,44,35,73,47,15,30.19,30.10,9,3,15,0.00
2013-3-14,91,70,53,53,46,35,75,48,14,30.16,30.07,6,1,15,0.00
2013-3-15,82,67,54,52,48,44,78,53,27,30.12,30.00,10,3,17,0.00
2013-3-16,73,60,50,53,46,38,92,62,28,30.02,29.93,9,3,16,0.00
2013-3-17,71,57,48,58,51,47,99,84,48,30.04,29.98,9,3,15,0.00
2013-3-18,63,53,50,53,51,49,99,91,68,30.14,30.03,9,3,11,0.02
2013-3-19,71,58,49,55,52,48,98,82,56,30.16,30.09,9,3,13,0.00
2013-3-20,73,60,50,54,51,49,96,74,44,30.16,30.05,10,3,17,0.00
2013-3-21,70,58,50,52,50,49,96,77,49,30.04,29.86,9,3,19,0.00
2013-3-22,75,58,51,54,51,47,98,80,37,29.98,29.85,11,4,18,0.00
2013-3-23,75,58,46,53,48,40,98,76,28,30.07,29.95,9,3,20,0.00
2013-3-24,78,61,46,52,46,35,97,65,21,30.07,29.95,8,2,16,0.00
2013-3-25,80,63,50,51,46,33,83,59,18,30.03,29.95,12,3,16,0.00
2013-3-26,72,59,48,51,43,32,96,60,23,30.02,29.95,10,4,19,0.00
2013-3-27,70,57,49,51,49,48,98,80,51,30.10,29.98,14,4,19,0.00
2013-3-28,74,58,47,53,50,46,96,77,46,30.14,30.06,11,2,18,0.00
2013-3-29,76,61,49,56,52,46,98,75,34,30.18,30.09,11,4,19,0.00
2013-3-30,77,61,52,56,53,50,98,77,44,30.19,30.09,10,4,18,0.00
2013-3-31,70,57,48,54,51,47,96,81,53,30.18,30.09,12,5,22,0.00